ION SCV-009 (55441 NORAD) Tracking and Keplerian Element Data

This shows tracking and keplerian element data for the satellite.

Feedback or suggestion? Click here.




ElementValue
Catalog55441
NameION SCV-009
Epoch Orbit1516
Epoch Day126.61681145
Epoch Year2023
RAAN185.1682
Inclination69.9926
Eccentricity0.0010791
Argument of Perigee240.156
Mean Anonmoly238.475
Mean Motion15.57493282
Decay Rate-1.12E-05
L11 55441U 23014BC 23126.61681145 -.00001120 00000+0 -12678-4 0 9998
L22 55441 69.9926 185.1682 0010791 240.1560 238.4750 15.57493282 15167



Live tracking and technical data element details for ION SCV-009 (NORAD 55441). ION SCV-009 can be tracked NOW for your location showing map with azimuth and elevation plus other details from your city location.







IsCatalogInMostPopularTable: catalog: 55441, numindb: 1
Update: records affected: 1



GetName: 55441 ION SCV-009

Hit Count: updated at: Mon, 05 Jun 2023 20:51:59 GMT